TimeEDT,TemperatureF,Dew PointF,Humidity,Sea Level PressureIn,VisibilityMPH,Wind Direction,Wind SpeedMPH,Gust SpeedMPH,PrecipitationIn,Events,Conditions,WindDirDegrees,DateUTC
12:52 AM,45.0,42.1,90,30.38,10.0,Calm,Calm,-,N/A,,Clear,0,2013-10-09 04:52:00
1:52 AM,43.0,41.0,93,30.38,10.0,Calm,Calm,-,N/A,,Clear,0,2013-10-09 05:52:00
2:52 AM,43.0,39.9,89,30.39,10.0,NNE,4.6,-,N/A,,Clear,30,2013-10-09 06:52:00
3:52 AM,43.0,39.9,89,30.38,10.0,NE,3.5,-,N/A,,Clear,40,2013-10-09 07:52:00
4:52 AM,43.0,39.9,89,30.39,10.0,NNE,3.5,-,N/A,,Clear,20,2013-10-09 08:52:00
5:52 AM,41.0,37.9,89,30.40,10.0,Calm,Calm,-,N/A,,Clear,0,2013-10-09 09:52:00
6:52 AM,42.1,39.0,89,30.40,10.0,NNW,3.5,-,N/A,,Clear,340,2013-10-09 10:52:00
7:52 AM,43.0,39.9,89,30.43,10.0,Calm,Calm,-,N/A,,Clear,0,2013-10-09 11:52:00
8:52 AM,50.0,44.1,80,30.45,10.0,Calm,Calm,-,N/A,,Clear,0,2013-10-09 12:52:00
9:52 AM,55.9,43.0,62,30.45,10.0,NE,12.7,18.4,N/A,,Clear,50,2013-10-09 13:52:00
10:52 AM,59.0,42.1,53,30.44,10.0,NNE,15.0,-,N/A,,Clear,30,2013-10-09 14:52:00
11:52 AM,61.0,41.0,48,30.43,10.0,NE,15.0,-,N/A,,Clear,50,2013-10-09 15:52:00
12:52 PM,63.0,41.0,45,30.41,10.0,NE,10.4,-,N/A,,Clear,40,2013-10-09 16:52:00
1:52 PM,64.0,43.0,46,30.39,10.0,NE,9.2,-,N/A,,Clear,50,2013-10-09 17:52:00
2:52 PM,64.0,39.0,40,30.39,10.0,East,9.2,17.3,N/A,,Clear,80,2013-10-09 18:52:00
3:52 PM,62.1,39.9,44,30.38,10.0,NE,10.4,-,N/A,,Clear,50,2013-10-09 19:52:00
4:52 PM,61.0,41.0,48,30.37,10.0,NNE,11.5,-,N/A,,Clear,30,2013-10-09 20:52:00
5:52 PM,57.9,42.1,56,30.38,10.0,NE,5.8,-,N/A,,Clear,50,2013-10-09 21:52:00
6:52 PM,55.0,43.0,64,30.37,10.0,NE,4.6,-,N/A,,Clear,40,2013-10-09 22:52:00
7:52 PM,53.1,43.0,69,30.37,10.0,NE,4.6,-,N/A,,Clear,40,2013-10-09 23:52:00
8:52 PM,52.0,43.0,71,30.37,10.0,Calm,Calm,-,N/A,,Clear,0,2013-10-10 00:52:00
9:52 PM,50.0,44.1,80,30.38,10.0,North,3.5,-,N/A,,Clear,10,2013-10-10 01:52:00
10:52 PM,48.9,44.1,83,30.37,10.0,NNE,4.6,-,N/A,,Clear,20,2013-10-10 02:52:00
11:52 PM,46.9,44.1,90,30.36,10.0,North,4.6,-,N/A,,Clear,360,2013-10-10 03:52:00